Terminal Aerodrome Forecast
Issued by NWS Rapid City, SD

Home | Current Version | Previous Version | Graphics & Text | Print | Product List | Glossary On
Versions: 1 2 3 4 5 6 7 8 9 10 11 12 13 14 15 16 17 18 19
000
FTUS43 KUNR 111100
TAFRAP
TAF
KRAP 111127Z 1112/1212 VRB05KT P6SM SCT150
     FM111900 11008KT P6SM SCT080 BKN150 PROB30 1122/1202 -TSRA
      BKN060CB
     FM120600 VRB05KT P6SM SCT150=

USA.gov is the U.S. government's official web portal to all federal, state and local government web resources and services.